Theta_e
312 312 311 311 311 310 309 308 307 306 307 306 306 306 307 306 305 319 317 315 316 315 341 340 346 349 350 353 353 350 356 353 351 351 355 355 357 352 349 352 351 350 351 351 349
311 311 309 307 307 308 309 310 307 306 307 308 307 306 307 306 316 316 315 314 313 315 333 340 344 347 351 351 355 353 356 351 348 348 352 356 355 354 352 353 352 352 349 349 348
310 307 305 305 305 306 306 306 308 309 310 310 311 308 307 308 318 318 316 318 311 316 328 336 337 344 346 348 352 349 354 349 346 346 349 355 356 353 352 353 352 354 352 350 349
307 304 303 303 303 304 304 304 305 307 308 309 312 310 307 317 318 321 319 326 311 325 329 336 340 345 344 349 348 351 347 350 347 344 346 353 354 355 352 349 348 351 350 350 350
305 304 303 302 302 302 302 302 303 306 306 309 312 312 317 319 315 321 318 315 324 329 332 337 342 341 342 343 344 350 345 346 346 344 343 348 353 353 354 348 347 350 350 351 350
303 302 302 302 302 302 302 303 304 306 314 312 312 313 316 316 314 313 323 330 332 332 331 335 339 338 338 341 343 342 344 343 342 343 340 347 350 353 353 350 350 351 351 350 350
303 302 302 302 302 301 302 303 306 315 317 316 314 315 318 319 312 313 322 331 334 333 332 332 335 339 336 339 333 340 339 334 334 338 338 345 350 354 353 353 353 352 351 350 350
302 302 302 301 302 301 302 305 313 316 317 314 315 316 321 316 315 319 321 327 334 333 331 331 332 338 334 330 329 332 332 335 337 337 337 343 348 352 353 355 355 353 351 350 350
302 302 302 301 302 302 303 308 319 319 316 316 318 319 322 313 313 314 325 328 334 333 331 332 332 335 336 332 329 330 334 335 339 336 339 344 346 346 353 354 356 355 352 350 350
301 301 301 301 302 302 305 313 318 319 319 320 318 320 319 320 318 313 322 325 333 334 330 333 331 331 333 335 333 332 333 335 339 337 339 346 345 343 350 352 355 355 353 352 350
301 301 301 301 302 302 307 311 317 321 312 324 328 323 322 320 319 314 319 328 334 330 325 326 326 327 325 329 330 331 332 334 337 336 338 341 343 344 344 350 351 354 354 353 351
301 301 301 301 302 303 308 310 307 305 310 312 313 317 323 321 324 319 319 324 328 328 324 324 326 325 326 324 327 328 329 332 335 334 334 337 339 340 340 346 349 353 354 354 352
301 301 301 302 303 307 307 307 306 306 311 315 315 316 316 319 322 323 318 321 325 326 324 325 325 324 325 326 327 327 329 331 333 334 332 334 337 337 337 340 345 348 352 352 352
301 301 302 303 306 307 307 306 307 307 315 317 316 317 317 320 321 323 316 321 322 325 324 325 324 324 324 325 326 327 326 327 329 332 337 334 341 341 340 342 346 347 351 353 352
301 301 302 303 307 308 306 306 306 308 316 319 317 315 317 321 324 322 320 318 321 321 325 325 324 324 324 324 324 324 325 326 326 329 331 334 336 338 339 340 346 348 349 352 352
301 302 302 307 307 306 305 306 308 315 315 321 315 316 317 319 322 322 323 319 320 321 322 323 323 324 324 324 324 324 324 325 326 327 331 333 335 337 338 341 341 346 348 351 351
301 303 305 305 307 305 305 309 311 313 316 320 320 319 319 320 321 321 323 323 326 324 323 323 324 323 324 325 325 324 325 327 327 328 330 331 333 335 335 336 339 342 346 349 352
302 304 305 305 305 305 306 310 310 314 317 316 316 317 320 321 320 320 323 325 325 326 326 326 325 324 324 325 326 325 326 326 328 327 327 329 331 333 333 334 335 338 340 347 350
303 305 305 305 305 306 309 308 308 315 314 314 316 319 322 320 320 320 322 325 325 327 329 328 328 325 325 325 326 327 328 325 325 327 327 327 328 329 331 333 334 334 337 340 348
305 305 305 304 305 308 309 307 310 310 311 313 316 317 321 320 321 321 322 322 325 325 327 329 331 326 324 325 325 327 326 325 326 327 328 325 328 329 331 332 334 334 336 339 343
306 307 305 304 306 308 307 307 307 308 309 312 314 315 317 318 319 322 324 320 321 325 324 327 328 329 325 326 326 326 327 326 326 326 328 328 328 329 330 333 332 334 337 340 343
306 306 304 304 307 307 307 307 306 307 308 311 312 311 315 317 319 321 324 321 317 321 326 326 328 331 327 325 326 326 326 327 327 330 327 328 327 326 328 329 333 334 336 338 340
307 306 304 304 306 307 306 306 306 307 308 310 313 313 313 316 319 319 320 317 315 321 325 326 327 331 331 327 326 326 326 326 326 327 331 329 326 328 329 329 332 333 334 336 338
307 307 306 306 305 306 306 307 306 306 307 307 310 312 313 313 315 318 317 316 315 316 318 320 328 330 333 331 328 328 327 326 326 330 328 330 329 328 328 328 330 331 331 332 335
306 306 305 307 306 305 305 305 305 306 306 306 310 310 312 314 313 314 315 315 315 315 317 319 328 328 330 325 325 329 327 327 328 328 330 329 330 330 329 329 329 331 330 332 335
306 306 305 306 305 305 304 306 306 306 305 306 310 307 308 313 314 314 313 314 315 315 316 317 325 324 327 324 323 324 326 327 328 329 329 329 330 330 329 330 330 330 330 330 330
305 305 307 305 305 305 305 304 304 304 305 305 305 306 307 308 309 309 310 311 312 313 315 315 319 322 327 325 324 326 326 327 327 328 329 331 330 329 330 329 330 331 331 331 332
Wind_Speed
25 26 25 25 25 25 24 24 23 24 23 22 21 20 19 18 18 7 16 14 14 14 16 22 22 19 19 12 8 3 6 4 5 4 9 12 8 6 7 12 7 8 7 25 33
26 26 28 28 28 28 27 25 27 28 25 22 20 20 18 17 15 22 23 22 18 24 22 26 21 22 15 14 8 9 9 5 5 4 3 12 8 10 8 13 13 9 17 30 33
27 29 31 31 32 31 31 30 31 28 25 22 19 17 14 12 10 8 6 16 25 27 25 24 21 19 17 12 12 10 10 3 6 7 2 11 10 9 8 12 16 16 22 28 31
29 31 33 34 35 35 34 34 34 25 23 21 17 14 7 4 5 3 4 9 27 28 24 24 20 22 17 14 14 9 10 7 3 3 1 7 10 10 10 4 13 17 23 27 27
31 33 35 36 38 39 38 39 32 28 28 21 13 9 3 8 11 4 2 14 25 28 27 22 22 23 19 17 10 16 8 6 8 7 4 6 10 9 13 8 14 19 23 26 24
33 36 38 40 41 42 42 35 30 32 24 17 10 6 6 14 6 11 10 20 28 27 27 25 21 20 12 10 16 9 14 8 9 9 7 8 9 12 11 12 15 20 24 25 25
35 37 39 41 43 45 38 34 32 20 17 12 13 10 9 18 5 8 16 22 24 27 24 28 18 21 9 12 11 14 10 11 11 12 6 8 10 13 11 16 18 20 21 23 24
36 39 41 42 44 43 36 32 14 15 8 7 17 11 9 5 16 8 17 19 21 23 22 24 10 20 10 1 7 16 16 15 15 16 12 13 11 17 16 19 20 21 21 22 24
36 38 40 42 45 37 35 20 8 9 9 19 11 8 7 5 12 21 18 19 21 21 16 18 16 16 20 13 13 14 15 19 14 11 10 16 11 14 19 19 19 20 22 21 22
38 39 40 43 45 29 28 7 3 3 4 1 1 6 8 5 9 25 19 16 22 18 14 17 14 15 17 17 19 19 19 16 19 14 13 16 16 7 18 19 19 20 20 21 23
38 39 41 44 42 20 22 8 4 6 8 10 1 7 2 1 10 19 25 25 17 22 17 24 19 25 27 24 20 16 16 20 16 11 13 16 15 14 13 18 18 19 20 22 23
39 39 40 43 33 20 14 5 8 6 14 17 24 24 21 2 10 17 32 18 21 24 22 18 28 23 21 20 20 22 17 20 13 7 12 15 15 14 12 17 18 19 22 23 21
39 39 41 39 12 15 10 9 11 15 8 12 14 15 13 22 11 21 31 26 26 29 30 24 14 24 23 21 23 23 23 18 17 14 15 14 16 15 14 14 15 19 21 21 22
38 38 39 30 5 17 4 17 16 9 6 8 8 7 14 14 13 19 33 29 18 29 28 24 17 25 24 26 24 25 23 19 18 12 13 16 17 20 22 17 18 18 20 22 24
39 38 34 13 11 9 19 21 15 4 7 9 7 8 8 20 7 24 31 29 23 22 28 21 26 23 27 26 25 21 17 18 20 17 17 22 10 16 13 17 19 19 21 23 24
39 39 23 8 8 13 23 19 4 6 10 5 5 8 9 18 9 11 23 27 22 24 26 27 16 24 23 19 23 14 16 14 15 16 19 23 20 19 17 18 18 19 19 22 23
38 31 9 9 13 23 21 7 7 10 5 4 6 2 8 12 20 14 26 32 22 24 28 26 25 18 15 23 20 22 20 10 12 16 20 22 22 20 8 19 21 18 20 22 23
38 20 8 9 21 20 14 8 13 3 9 18 13 18 15 10 13 21 20 26 33 26 17 22 20 29 24 26 22 28 24 11 17 15 17 17 22 24 23 20 7 19 17 19 21
32 13 5 18 21 12 7 8 8 13 14 14 19 10 11 6 6 13 22 24 32 29 24 22 24 29 20 22 24 25 25 28 11 5 8 15 19 16 14 21 24 23 19 18 21
19 10 9 21 16 12 7 6 10 10 15 15 16 6 8 5 8 8 16 4 17 34 4 16 18 18 25 26 26 20 26 21 15 16 19 13 19 13 22 23 22 23 22 20 21
11 6 13 22 10 7 5 8 13 15 13 9 14 14 12 12 9 6 2 8 7 6 5 14 15 22 23 26 29 23 18 24 17 17 12 11 12 16 18 17 23 23 22 20 20
10 6 16 19 4 4 7 11 10 14 13 16 10 14 16 12 10 4 4 8 8 7 13 15 10 12 26 20 26 28 24 29 13 23 19 14 8 7 7 16 18 19 20 20 19
8 5 8 16 6 7 9 11 10 10 10 11 9 13 13 15 5 4 1 4 11 9 0 4 14 15 14 21 23 28 28 25 25 16 21 17 5 8 7 1 3 9 12 15 15
5 5 4 3 3 11 12 11 11 10 3 11 5 15 15 16 10 3 2 4 8 9 9 6 12 23 18 17 19 28 29 28 28 20 18 19 16 11 5 6 10 7 6 9 10
2 4 4 6 8 12 12 14 10 6 10 12 3 7 8 8 13 13 5 10 2 8 5 6 14 7 14 1 4 14 27 30 30 27 25 19 21 18 11 7 4 4 4 2 4
4 3 2 10 8 10 8 10 11 11 11 9 6 15 10 4 9 8 9 7 5 6 6 6 4 6 14 10 7 10 12 15 25 29 27 26 23 11 11 11 17 19 16 14 14
3 5 3 7 8 8 7 9 15 13 7 6 14 16 14 9 11 15 15 14 14 11 7 6 5 6 15 12 10 15 22 20 18 18 18 23 17 16 19 14 13 12 13 14 15
Wind_Direction
355 353 350 349 347 343 340 337 335 332 329 326 324 321 321 315 312 260 241 236 215 194 162 168 175 183 183 203 218 260 255 188 105 204 117 147 133 124 97 137 157 157 149 146 154
353 352 351 350 347 343 339 335 334 328 321 318 318 317 321 322 304 265 245 235 222 191 178 180 182 181 190 204 199 227 275 67 55 35 158 164 156 144 151 154 147 134 116 148 158
354 354 353 349 345 341 338 334 330 322 315 310 309 312 321 333 280 252 193 227 210 194 191 194 186 187 210 206 202 208 251 130 112 48 312 162 173 161 156 173 168 155 149 157 165
356 355 353 349 346 342 339 334 329 321 316 309 301 302 321 295 258 66 343 211 183 181 184 193 189 196 206 204 203 238 237 258 135 4 315 190 158 178 175 91 161 153 160 164 172
356 356 354 350 347 344 340 334 326 320 309 298 287 282 295 228 246 289 327 148 164 179 183 186 192 201 210 208 196 222 226 245 250 252 298 198 191 197 188 131 153 153 166 174 180
358 357 354 351 348 345 337 333 325 316 309 283 249 213 224 248 266 217 184 156 170 183 189 190 198 206 237 219 211 194 225 236 243 232 247 219 196 195 191 150 155 165 175 178 186
357 355 352 350 347 343 338 332 323 318 311 268 197 186 234 242 234 211 194 187 183 190 189 197 199 202 220 214 219 220 222 224 229 226 221 216 211 204 164 169 165 175 179 184 187
356 352 350 350 347 342 338 331 333 341 312 181 169 182 251 236 231 211 194 197 196 200 204 198 194 214 230 264 219 218 226 236 224 208 202 206 216 188 169 181 179 176 181 186 188
354 351 350 348 346 343 339 332 25 21 89 129 142 215 249 173 204 199 186 188 186 194 208 192 208 222 222 233 223 205 222 217 190 205 191 202 237 158 174 191 187 184 180 186 188
353 351 350 346 345 345 342 330 223 71 118 247 111 215 231 224 177 189 187 178 178 164 176 192 201 208 217 212 217 206 218 230 210 190 204 204 236 161 178 198 195 189 186 188 192
354 351 348 344 345 344 345 294 258 194 237 256 259 275 194 9 151 187 176 165 166 177 184 190 199 207 204 213 226 227 220 227 210 213 220 230 231 233 192 198 207 192 194 195 197
355 352 347 343 343 354 349 48 52 331 298 264 249 252 249 301 207 179 179 174 171 184 188 184 215 212 216 209 222 230 228 227 227 168 231 233 234 232 215 206 209 198 198 204 194
355 352 347 342 9 1 32 52 342 332 264 279 227 234 220 214 227 178 190 196 188 189 195 199 206 213 207 210 212 222 225 228 230 203 230 255 251 233 213 213 212 210 203 203 199
353 351 348 342 334 345 31 336 328 318 276 210 208 229 192 193 219 206 199 194 197 201 199 221 200 199 207 215 208 219 217 236 240 222 240 198 253 224 222 208 208 208 202 202 199
350 349 344 352 324 347 326 323 318 232 272 107 139 142 158 199 125 190 189 206 206 203 200 202 213 196 211 212 211 230 220 219 235 242 249 248 247 254 198 217 210 211 205 203 201
348 345 341 342 309 334 329 320 248 228 239 141 133 185 174 211 217 153 184 214 226 218 209 223 208 215 219 213 221 212 221 222 230 234 239 236 238 244 233 215 222 210 208 202 204
345 347 1 335 329 327 325 290 232 239 55 54 2 331 246 195 211 186 195 197 201 203 214 212 217 218 208 213 206 202 196 196 210 219 234 227 235 235 251 234 216 219 206 202 201
343 352 332 333 327 324 314 246 250 340 20 344 320 296 243 201 224 204 195 206 215 208 190 205 216 204 194 207 197 196 203 207 210 219 228 216 233 235 234 238 236 234 216 199 201
345 344 341 338 327 320 285 250 275 15 346 324 310 280 193 204 293 214 215 213 207 214 226 197 225 185 201 197 199 194 213 216 250 192 268 226 218 241 253 220 224 230 223 207 197
337 329 4 343 326 290 266 313 347 343 332 318 300 352 315 345 269 217 189 21 234 211 239 257 220 186 191 195 210 209 204 214 228 243 241 226 232 226 212 216 219 215 213 206 200
331 309 8 341 306 286 341 340 324 325 334 311 316 309 299 298 298 266 141 42 339 177 241 250 239 185 183 201 195 201 201 213 225 230 218 235 235 211 230 211 216 212 210 203 198
337 325 356 343 305 343 351 330 316 320 342 306 281 277 300 306 286 260 139 38 347 273 219 218 236 203 203 198 211 203 205 201 214 210 239 278 261 116 226 215 215 215 208 211 207
340 312 349 341 7 347 341 319 314 339 358 350 311 344 300 289 272 296 57 46 360 12 23 168 223 212 187 202 204 217 202 209 217 229 211 220 214 124 117 156 215 229 225 217 219
322 324 359 303 15 336 342 328 331 352 334 345 334 321 317 256 243 274 318 32 350 9 325 260 245 223 214 211 199 213 209 214 212 222 225 211 234 163 206 143 148 169 199 219 212
354 11 354 315 329 330 314 294 313 346 342 317 83 4 330 283 270 255 315 304 254 5 335 318 221 238 249 288 287 238 215 210 218 222 227 228 214 239 250 228 234 310 318 348 215
315 339 315 301 295 294 310 311 326 335 333 325 2 326 313 316 310 331 330 314 318 328 331 336 198 254 245 217 226 239 231 240 235 225 233 240 246 222 218 298 270 269 290 285 274
268 285 270 275 292 298 312 318 310 313 307 276 325 316 311 328 279 293 294 283 280 291 305 289 283 237 229 212 240 243 224 220 227 232 238 236 243 248 257 247 257 276 287 294 286